This demonstration page uses our WeatherBlox Daily Observations layout. Learn more.

Left ArrowRight Arrow

Hourly Observations for March 10, 2018

Temp ( °F °C ) Dew Point ( °F °C ) Humidity (%) Winds ( mph kmh ) Pressure ( in mb ) Visibility ( mi km ) Precip ( " mm )
12:15 am 00:15 Cloudy 30 -1 27 -3 86 86 NE 6 9 30.06 1018 10 16 N/A
12:35 am 00:35 Cloudy 30 -1 27 -3 86 86 NE 5 7 30.03 1017 10 16 N/A
12:55 am 00:55 Cloudy 28 -2 25 -4 86 86 NE 7 11 30.06 1018 10 16 N/A
1:15 am 01:15 Mostly Cloudy 28 -2 25 -4 86 86 ENE 6 9 30.06 1018 10 16 N/A
1:35 am 01:35 Clear 28 -2 25 -4 86 86 NE 7 11 30.06 1018 10 16 N/A
1:55 am 01:55 Clear 27 -3 25 -4 93 93 NE 6 9 30.06 1018 10 16 N/A
2:15 am 02:15 Clear 27 -3 25 -4 93 93 NE 3 6 30.06 1018 10 16 N/A
2:35 am 02:35 Clear 25 -4 23 -5 93 93 Calm 30.06 1018 10 16 N/A
2:55 am 02:55 Clear 27 -3 25 -4 93 93 Calm 30.06 1018 10 16 N/A
3:15 am 03:15 Partly Cloudy 27 -3 27 -3 100 100 Calm 30.06 1018 10 16 N/A
3:35 am 03:35 Clear 27 -3 25 -4 93 93 Calm 30.06 1018 10 16 N/A
3:55 am 03:55 Clear 25 -4 23 -5 93 93 Calm 30.06 1018 10 16 N/A
4:15 am 04:15 Mostly Cloudy 25 -4 25 -4 100 100 NNE 5 7 30.06 1018 10 16 N/A
4:35 am 04:35 Cloudy 27 -3 27 -3 100 100 NNE 5 7 30.06 1018 10 16 N/A
4:55 am 04:55 Mostly Cloudy 27 -3 27 -3 100 100 NNE 6 9 30.06 1018 10 16 N/A
5:15 am 05:15 Partly Cloudy 25 -4 23 -5 93 93 NNE 7 11 30.06 1018 10 16 N/A
5:35 am 05:35 Clear 25 -4 23 -5 93 93 NNE 6 9 30.06 1018 10 16 N/A
5:55 am 05:55 Clear 25 -4 23 -5 93 93 NNE 7 11 30.06 1018 10 16 N/A
6:15 am 06:15 Clear 25 -4 23 -5 93 93 NE 7 11 30.09 1019 10 16 N/A
6:35 am 06:35 Clear 23 -5 23 -5 100 100 NE 7 11 30.09 1019 10 16 N/A
6:55 am 06:55 Clear 21 -6 21 -6 100 100 NE 5 7 30.12 1020 10 16 N/A
7:15 am 07:15 Sunny 23 -5 23 -5 100 100 NE 7 11 30.09 1019 10 16 N/A
7:35 am 07:35 Sunny 25 -4 23 -5 93 93 NE 7 11 30.09 1019 10 16 N/A
7:55 am 07:55 Sunny 27 -3 25 -4 93 93 ENE 5 7 30.09 1019 10 16 N/A
8:15 am 08:15 Sunny 30 -1 27 -3 86 86 ENE 6 9 30.09 1019 10 16 N/A
8:35 am 08:35 Sunny 32 0 27 -3 80 80 ENE 7 11 30.09 1019 10 16 N/A
8:55 am 08:55 Sunny 32 0 27 -3 80 80 E 8 13 30.09 1019 10 16 N/A
9:15 am 09:15 Sunny 34 1 27 -3 75 75 E 8 13 30.12 1020 10 16 N/A
9:35 am 09:35 Sunny 36 2 25 -4 65 65 E 9 15 30.12 1020 10 16 N/A
9:55 am 09:55 Sunny 36 2 25 -4 65 65 ENE 8 13 30.12 1020 10 16 N/A
10:15 am 10:15 Sunny 36 2 25 -4 65 65 ENE 10 17 30.12 1020 10 16 N/A
10:35 am 10:35 Sunny 37 3 25 -4 60 60 ENE 9 15 30.12 1020 10 16 N/A
10:55 am 10:55 Sunny 39 4 25 -4 56 56 ENE 8 13 30.09 1019 10 16 N/A
11:15 am 11:15 Sunny 39 4 25 -4 56 56 E 7 11 30.09 1019 10 16 N/A
11:35 am 11:35 Sunny 39 4 25 -4 56 56 ENE 6 9 30.09 1019 10 16 N/A
11:55 am 11:55 Sunny 39 4 25 -4 56 56 NE 7 11 30.09 1019 10 16 N/A
12:15 pm 12:15 Sunny 41 5 25 -4 53 53 E 7 11 30.06 1018 10 16 N/A
12:35 pm 12:35 Sunny 41 5 25 -4 53 53 NNW 3 6 30.06 1018 10 16 N/A
12:56 pm 12:56 Sunny 41 5 23 -5 49 49 NE 3 6 30.06 1018 10 16 N/A
1:15 pm 13:15 Sunny 43 6 25 -4 49 49 NNE 7 11 30.06 1018 10 16 N/A
1:35 pm 13:35 Sunny 43 6 27 -3 53 53 ENE 6 9 30.06 1018 10 16 N/A
1:55 pm 13:55 Sunny 43 6 27 -3 53 53 NNE 3 6 30.06 1018 10 16 N/A
2:15 pm 14:15 Sunny 45 7 27 -3 49 49 ENE 8 13 30.03 1017 10 16 N/A
2:35 pm 14:35 Sunny 43 6 27 -3 53 53 NNE 6 9 30.06 1018 10 16 N/A
2:55 pm 14:55 Sunny 45 7 28 -2 53 53 NNE 10 17 30.03 1017 10 16 N/A
3:15 pm 15:15 Sunny 45 7 28 -2 53 53 NNE 12 19 30.06 1018 10 16 N/A
3:35 pm 15:35 Sunny 45 7 28 -2 53 53 NNE 10 17 30.03 1017 10 16 N/A
3:55 pm 15:55 Sunny 45 7 27 -3 49 49 NE 8 13 30.03 1017 10 16 N/A
4:15 pm 16:15 Sunny 45 7 27 -3 49 49 NE 8 13 30.06 1018 10 16 N/A
4:35 pm 16:35 Sunny 45 7 27 -3 49 49 N 10 17 30.06 1018 10 16 N/A
4:55 pm 16:55 Sunny 43 6 27 -3 53 53 NNE 8 13 30.06 1018 10 16 N/A
5:15 pm 17:15 Sunny 43 6 25 -4 49 49 NE 7 11 30.06 1018 10 16 N/A
5:35 pm 17:35 Sunny 41 5 27 -3 57 57 ENE 7 11 30.06 1018 10 16 N/A
5:55 pm 17:55 Sunny 41 5 27 -3 57 57 ENE 6 9 30.06 1018 10 16 N/A
6:15 pm 18:15 Sunny 39 4 25 -4 56 56 ENE 7 11 30.06 1018 10 16 N/A
6:35 pm 18:35 Sunny 36 2 25 -4 65 65 ENE 6 9 30.09 1019 10 16 N/A
6:55 pm 18:55 Clear 36 2 27 -3 70 70 NE 6 9 30.12 1020 10 16 N/A
7:15 pm 19:15 Clear 34 1 27 -3 75 75 NE 9 15 30.12 1020 10 16 N/A
7:35 pm 19:35 Clear 32 0 27 -3 80 80 ENE 7 11 30.12 1020 10 16 N/A
7:55 pm 19:55 Clear 32 0 27 -3 80 80 NE 7 11 30.12 1020 10 16 N/A
8:15 pm 20:15 Clear 32 0 25 -4 75 75 NE 6 9 30.12 1020 10 16 N/A
8:35 pm 20:35 Clear 30 -1 25 -4 80 80 NE 8 13 30.12 1020 10 16 N/A
8:55 pm 20:55 Clear 30 -1 27 -3 86 86 NE 8 13 30.12 1020 10 16 N/A
9:15 pm 21:15 Clear 28 -2 25 -4 86 86 NE 8 13 30.12 1020 10 16 N/A
9:35 pm 21:35 Clear 30 -1 27 -3 86 86 NE 8 13 30.15 1021 10 16 N/A
9:55 pm 21:55 Clear 28 -2 27 -3 93 93 NE 8 13 30.15 1021 10 16 N/A
10:15 pm 22:15 Clear 28 -2 27 -3 93 93 NE 8 13 30.15 1021 10 16 N/A
10:35 pm 22:35 Clear 30 -1 27 -3 86 86 NE 7 11 30.15 1021 10 16 N/A
10:55 pm 22:55 Clear 30 -1 27 -3 86 86 NE 8 13 30.15 1021 10 16 N/A
11:15 pm 23:15 Clear 28 -2 25 -4 86 86 NE 7 11 30.15 1021 10 16 N/A
11:35 pm 23:35 Clear 28 -2 25 -4 86 86 NE 7 11 30.15 1021 10 16 N/A
11:55 pm 23:55 Clear 28 -2 25 -4 86 86 ENE 7 11 30.15 1021 10 16 N/A

Powered by AerisWeather